Current Weather Conditions: station 62124

sailwx.info

Wind from 240

Air temperature 16.9° C
Dewpoint 15.9° C

Last reported at 2019-Aug-22 15:00 UTC.
Time now 2019-Aug-22 16:47 UTC

Location: N 53°36' W 003°36'.
View on Google Maps.

See reports from other nearby stations

  
Tides and Currents Weather Stations Pressure Air Temp Water Temp Dewpoint Dewpoint Depression Visibility Wind Speed Wind Dir Waves Ship Positions
date/time (UTC)wind fromknots sea level pressurealtimeterstation pressurevisibilityair tempwater tempwave heightnotes
2019-Aug-22 15:00 240 16.9
2019-Aug-22 14:00 250 17.0
2019-Aug-22 13:00 240 16.9
2019-Aug-22 12:00 240 16.8
2019-Aug-22 11:00 240 16.5
2019-Aug-22 10:00 240 16.6
2019-Aug-22 09:00 240 16.5
2019-Aug-22 08:00 240 16.4
2019-Aug-22 07:00 240 16.2
2019-Aug-22 06:00 240 16.0
2019-Aug-22 05:00 250 16.0
2019-Aug-22 04:00 260 15.9
2019-Aug-22 03:00 250 16.0
2019-Aug-22 02:00 250 15.7
2019-Aug-22 01:00 240 15.6
2019-Aug-22 00:00 230 15.4
2019-Aug-21 23:00 230 15.2
2019-Aug-21 22:00 230 15.4
2019-Aug-21 21:00 230 15.8
2019-Aug-21 20:00 230 16.1
2019-Aug-21 19:00 230 16.3
2019-Aug-21 18:00 230 16.7
2019-Aug-21 17:00 240 16.8
2019-Aug-21 16:00 230 17.1
2019-Aug-21 15:00 230 17.0
2019-Aug-21 14:00 230 17.2
2019-Aug-21 13:00 230 16.7
2019-Aug-21 12:00 190 16.4
2019-Aug-21 11:00 210 16.6
2019-Aug-21 10:00 240 16.7
2019-Aug-21 09:00 220 16.5
2019-Aug-21 08:00 230 16.0
2019-Aug-21 07:00 240 15.5
2019-Aug-21 06:00 240 15.2
2019-Aug-21 05:00 240 15.3
2019-Aug-21 04:00 260 15.3
2019-Aug-21 03:00 260 15.6
2019-Aug-21 02:00 260 15.7
2019-Aug-21 01:00 260 15.8
2019-Aug-21 00:00 260 15.6
2019-Aug-20 23:00 260 15.6
2019-Aug-20 22:00 250 15.7
2019-Aug-20 21:00 250 15.6
2019-Aug-20 20:00 240 15.5
2019-Aug-20 19:00 240 15.3
2019-Aug-20 18:00 230 15.8
2019-Aug-20 17:00 230 15.8
2019-Aug-20 16:00 260 16.0